Date,TemperatureHighF,TemperatureAvgF,TemperatureLowF,DewpointHighF,DewpointAvgF,DewpointLowF,HumidityHigh,HumidityAvg,HumidityLow,PressureMaxIn,PressureMinIn,WindSpeedMaxMPH,WindSpeedAvgMPH,GustSpeedMaxMPH,PrecipitationSumIn
2014-1-1,27,20,13,13,10,7,84,65,44,30.29,30.06,5,1,15,0.00
2014-1-2,19,12,3,15,8,-1,86,83,78,30.27,29.81,10,4,22,0.00
2014-1-3,15,7,-2,7,-1,-9,87,71,55,30.31,29.68,9,4,18,0.00
2014-1-4,28,10,-6,11,-1,-100,85,66,36,30.40,30.15,5,1,13,0.00
2014-1-5,39,26,9,31,18,5,94,74,50,30.22,29.85,5,0,13,0.02
2014-1-6,54,38,28,53,35,17,98,90,64,29.87,29.16,8,1,18,1.63
2014-1-7,28,14,7,18,-2,-9,66,50,39,30.10,29.38,9,4,23,0.02
2014-1-8,25,13,5,7,1,-7,74,59,42,30.35,30.10,7,2,12,0.00
2014-1-9,28,15,9,11,7,5,84,70,47,30.54,30.31,4,0,11,0.00
2014-1-10,33,22,7,30,19,3,94,88,83,30.50,30.16,0,0,4,0.01
2014-1-11,54,39,32,53,37,-100,98,95,93,30.16,29.14,2,0,9,0.35
2014-1-12,51,43,35,50,33,26,98,67,49,29.84,29.14,7,2,20,0.16
2014-1-13,55,40,29,39,30,25,88,70,41,30.01,29.76,5,1,15,0.00
2014-1-14,46,43,39,44,41,38,98,91,78,29.77,29.50,4,1,12,0.40
2014-1-15,48,36,29,41,33,27,98,89,66,29.90,29.63,5,0,11,0.17
2014-1-16,39,34,29,36,32,27,97,94,88,29.83,29.75,2,0,5,0.01
2014-1-17,48,37,29,34,30,25,97,78,43,29.87,29.79,4,1,12,0.00
2014-1-18,34,32,29,33,28,-100,95,91,88,29.82,29.53,3,0,6,0.01
2014-1-19,32,31,27,31,27,22,96,87,75,29.61,29.41,5,1,16,0.03
2014-1-20,43,34,21,32,25,9,86,72,54,29.79,29.37,9,2,18,0.24
2014-1-21,20,14,10,10,4,-1,82,63,48,29.98,29.77,6,3,12,0.01
2014-1-22,20,12,7,6,0,-5,81,59,44,29.83,29.57,8,4,16,0.00
2014-1-23,25,12,2,2,-3,-6,74,53,34,30.04,29.80,5,1,12,0.00
2014-1-24,23,10,1,2,-2,-6,81,59,32,30.16,29.92,5,1,15,0.00
2014-1-25,36,24,13,27,13,-100,89,66,55,29.93,29.22,9,3,17,0.00
2014-1-26,25,19,13,19,4,-6,79,53,33,29.76,29.22,10,3,24,0.00
2014-1-27,43,26,19,37,16,6,94,67,41,29.87,29.40,5,1,24,0.06
2014-1-28,23,16,10,8,-1,-7,61,46,30,30.19,29.86,5,1,16,0.01
2014-1-29,30,19,15,6,1,-4,66,45,25,30.12,29.86,7,1,15,0.00
2014-1-30,35,19,8,10,5,-1,71,56,34,30.33,30.08,5,1,15,0.00
2014-1-31,43,30,17,24,18,10,89,64,36,30.09,29.91,5,1,11,0.00